Weather History for Kars, Turkey

Change the Weather History Date:

Wednesday, June 26, 2013

  Actual Average Record
Temperature  
Mean Temperature 56 °F -  
Max Temperature 72 °F 76 °F - ()
Min Temperature 41 °F 48 °F - ()
Degree Days  
Heating Degree Days 8    
Growing Degree Days 6 (Base 50)    
Moisture  
Dew Point 46 °F    
Average Humidity 63    
Maximum Humidity 100    
Minimum Humidity 26    
Precipitation  
Precipitation 0.00 in 0.07 in - ()
Sea Level Pressure  
Sea Level Pressure 30.10 in    
Wind  
Wind Speed 3 mph ()    
Max Wind Speed 9 mph    
Max Gust Speed -    
Visibility 6.1 miles    
Events      
T = Trace of Precipitation, MM = Missing Value Source: Averaged Metar Reports

Daily Weather History Graph

Daily Weather History Graph

Search for Another Location

Airport:

Trip Planner

Search our weather history database for the weather conditions in past years. The results will help you decide how hot, cold, wet, or windy it might be!

Date:

Astronomy

Jun. 26, 2013 Rise Set
Actual Time 4:38 AM EEST 7:42 PM EEST
Civil Twilight 4:05 AM EEST 8:15 PM EEST
Nautical Twilight 3:22 AM EEST 8:57 PM EEST
Astronomical Twilight 2:33 AM EEST 9:47 PM EEST
Moon 9:51 PM EEST (6/26) 8:04 AM EEST (6/26)
Length of Visible Light 16h 10m
Length of Day
15h 03m
Waning Gibbous, 88% of the Moon is Illuminated
Jun 26
Waning Gibbous
Jun 30
Last Quarter
Jul 8
New
Jul 16
First Quarter
Jul 22
Full

Hourly Weather History & Observations

Time (EEST) Temp. Dew Point Humidity Pressure Visibility Wind Dir Wind Speed Gust Speed Precip Events Conditions
12:50 AM 48.2 °F 46.4 °F 93% 30.09 in - East 6.9 mph - N/A   Clear
1:50 AM 48.2 °F 42.8 °F 82% 30.09 in - Variable 1.2 mph - N/A   Clear
3:00 AM 45 °F 43 °F 92%  in 6 mi NNW 1.2 mph - -  
3:50 AM 44.6 °F 42.8 °F 93% 30.09 in - Calm Calm - N/A   Clear
4:50 AM 42.8 °F 42.8 °F 100% 30.09 in - Calm Calm - N/A   Clear
5:50 AM 46.4 °F 44.6 °F 93% 30.09 in - Calm Calm - N/A   Clear
7:50 AM 55.4 °F 46.4 °F 72% 30.12 in - Variable 1.2 mph - N/A   Clear
8:50 AM 62.6 °F 46.4 °F 55% 30.12 in - Calm Calm - N/A   Clear
9:00 AM 62 °F 46 °F 45%  in 6 mi Calm Calm - -  
9:50 AM 64.4 °F 42.8 °F 45% 30.09 in - Variable 2.3 mph - N/A   Clear
10:50 AM 66.2 °F 46.4 °F 49% 30.09 in 6.2 mi Variable 3.5 mph - N/A   Partly Cloudy
11:50 AM 68.0 °F 46.4 °F 46% 30.09 in 6.2 mi East 5.8 mph - N/A   Partly Cloudy
12:50 PM 69.8 °F 46.4 °F 43% 30.09 in 6.2 mi SSE 3.5 mph - N/A   Partly Cloudy
1:50 PM 71.6 °F 44.6 °F 38% 30.09 in 6.2 mi Variable 2.3 mph - N/A   Partly Cloudy
2:50 PM 71.6 °F 44.6 °F 38% 30.09 in 6.2 mi Variable 3.5 mph - N/A   Partly Cloudy
3:00 PM 72 °F 44 °F 26%  in 6 mi ESE 3.5 mph - -   Scattered Clouds
3:50 PM 71.6 °F 42.8 °F 35% 30.09 in 6.2 mi Variable 4.6 mph - N/A   Partly Cloudy
4:50 PM 71.6 °F 44.6 °F 38% 30.09 in 6.2 mi East 6.9 mph - N/A   Partly Cloudy
5:50 PM 71.6 °F 42.8 °F 35% 30.09 in 6.2 mi NE 8.1 mph - N/A   Partly Cloudy
6:50 PM 68.0 °F 48.2 °F 49% 30.09 in 6.2 mi ENE 6.9 mph - N/A   Partly Cloudy
7:50 PM 59.0 °F 50.0 °F 72% 30.12 in 6.2 mi ENE 5.8 mph - N/A   Partly Cloudy
8:50 PM 55.4 °F 48.2 °F 77% 30.12 in 6.2 mi East 9.2 mph - N/A   Partly Cloudy
9:00 PM 55 °F 49 °F 74%  in 6 mi East 9.2 mph - -   Scattered Clouds
9:50 PM 55.4 °F 50.0 °F 82% 30.15 in - East 8.1 mph - N/A   Clear
10:50 PM 53.6 °F 48.2 °F 82% 30.15 in - East 6.9 mph - N/A   Clear
11:50 PM 51.8 °F 48.2 °F 88% 30.15 in - NE 5.8 mph - N/A   Clear